GW3995 Weather Reports


time (UTC)temp
C
wind
direction
speed
KPH
gust
KPH
rain 1hr
cm
rain 24hr
cm
rain mn
cm
humidity
%
barometer
mb
20260508064917 11 0 0.0 0.0 0.00 0.00 0.00 97 1014.0
20260508064417 11 0 0.0 0.0 0.00 0.00 0.00 97 1014.0
20260508063917 11 0 0.0 0.0 0.00 0.00 0.00 97 1013.9
20260508063418 11 0 0.0 0.0 0.00 0.00 0.00 97 1014.2
20260508062917 11 0 0.0 0.0 0.00 0.00 0.00 97 1013.9
20260508062417 11 0 0.0 0.0 0.00 0.00 0.00 97 1013.9
20260508061917 11 0 0.0 0.0 0.00 0.00 0.00 97 1013.8
20260508061417 11 0 0.0 0.0 0.00 0.00 0.00 97 1013.9
20260508060917 11 0 0.0 0.0 0.00 0.00 0.00 97 1013.9
20260508060417 11 0 0.0 0.0 0.00 0.00 0.00 96 1014.0
20260508055917 11 0 0.0 0.0 0.00 0.00 0.00 97 1014.2
20260508055417 11 52 0.0 0.0 0.00 0.00 0.00 97 1014.0
20260508054917 11 0 0.0 0.0 0.00 0.00 0.00 97 1014.0
20260508054417 11 0 0.0 0.0 0.00 0.00 0.00 96 1013.9
20260508053917 11 0 0.0 0.0 0.00 0.00 0.00 96 1013.9
20260508053417 11 0 0.0 0.0 0.00 0.00 0.00 96 1013.9
20260508052917 12 0 0.0 0.0 0.00 0.00 0.00 96 1013.9
20260508052417 12 0 0.0 0.0 0.00 0.00 0.00 96 1013.9
20260508051917 12 288 0.0 1.6 0.00 0.00 0.00 96 1014.0
20260508051417 12 39 1.6 1.6 0.00 0.00 0.00 96 1013.8
20260508050918 12 0 0.0 0.0 0.00 0.00 0.00 96 1013.8
20260508050418 12 0 0.0 0.0 0.00 0.00 0.00 96 1013.8
20260508045917 12 0 0.0 0.0 0.00 0.00 0.00 96 1013.8
20260508045417 12 0 0.0 0.0 0.00 0.00 0.00 96 1013.9
20260508044917 12 0 0.0 0.0 0.00 0.00 0.00 96 1013.9
20260508044417 12 0 0.0 0.0 0.00 0.00 0.00 96 1013.8
20260508043917 12 0 0.0 0.0 0.00 0.00 0.00 96 1013.7
20260508043417 12 0 0.0 0.0 0.00 0.00 0.00 96 1013.7
20260508042917 12 0 0.0 0.0 0.00 0.00 0.00 96 1013.7
20260508042417 12 0 0.0 0.0 0.00 0.00 0.00 96 1013.6
20260508041917 12 0 0.0 0.0 0.00 0.00 0.00 96 1013.7
20260508041417 12 0 0.0 0.0 0.00 0.00 0.00 96 1013.8
20260508040917 12 0 0.0 0.0 0.00 0.00 0.00 96 1013.8
20260508040417 12 0 0.0 0.0 0.00 0.00 0.00 96 1013.7
20260508035917 12 0 0.0 0.0 0.00 0.00 1.63 96 1013.7
20260508035418 12 0 0.0 0.0 0.00 0.00 1.63 96 1013.7
20260508034917 12 0 0.0 0.0 0.00 0.00 1.63 96 1013.6
20260508034417 12 0 0.0 0.0 0.00 0.00 1.63 96 1013.6
20260508033917 12 0 0.0 0.0 0.00 0.00 1.63 96 1013.4
20260508033417 12 49 0.0 1.6 0.00 0.00 1.63 96 1013.3
20260508032918 12 0 0.0 0.0 0.00 0.00 1.63 96 1013.3
20260508032418 12 0 0.0 0.0 0.00 0.00 1.63 96 1013.1
20260508031917 12 0 0.0 0.0 0.00 0.00 1.63 96 1013.0
20260508031417 12 0 0.0 0.0 0.00 0.00 1.63 95 1013.0
20260508030917 12 47 0.0 0.0 0.00 0.00 1.63 96 1013.0
20260508030418 12 0 0.0 0.0 0.00 0.00 1.63 96 1013.1
20260508025917 12 0 0.0 0.0 0.00 0.00 1.63 96 1013.1
20260508025417 12 0 0.0 0.0 0.00 0.00 1.63 96 1013.0
20260508024917 12 0 0.0 0.0 0.00 0.00 1.63 96 1013.0
20260508024417 12 41 0.0 0.0 0.00 0.00 1.63 96 1012.8
20260508023918 12 0 0.0 0.0 0.00 0.00 1.63 96 1013.0
20260508023417 12 0 0.0 0.0 0.00 0.00 1.63 96 1013.0
20260508022917 12 0 0.0 0.0 0.00 0.00 1.63 96 1012.8
20260508022418 12 0 0.0 0.0 0.00 0.00 1.63 96 1012.7
20260508021917 12 0 0.0 0.0 0.00 0.00 1.63 95 1012.6
20260508021417 12 0 0.0 0.0 0.00 0.00 1.63 95 1012.7
20260508020917 12 0 0.0 0.0 0.00 0.00 1.63 95 1012.6
20260508020418 12 0 0.0 0.0 0.00 0.00 1.63 95 1012.4
20260508015918 12 50 1.6 3.2 0.00 0.00 1.65 95 1012.4
20260508015417 12 0 0.0 0.0 0.00 0.00 1.65 95 1012.6
20260508014918 12 0 0.0 0.0 0.00 0.00 1.65 95 1012.5
20260508014417 12 0 0.0 0.0 0.00 0.00 1.65 95 1012.4
20260508013917 12 0 0.0 0.0 0.00 0.00 1.65 95 1012.4
20260508013417 12 0 0.0 0.0 0.00 0.00 1.65 95 1012.2
20260508012917 12 0 0.0 0.0 0.00 0.00 1.65 95 1012.1
20260508012417 12 0 0.0 0.0 0.00 0.00 1.65 95 1011.9
20260508011917 12 0 0.0 0.0 0.00 0.00 1.68 95 1011.7
20260508011417 12 0 0.0 0.0 0.00 0.00 1.68 95 1011.7
20260508010917 12 0 0.0 0.0 0.00 0.00 1.68 95 1011.4
20260508010417 12 0 0.0 0.0 0.00 0.00 1.68 95 1011.2
20260508005917 12 0 0.0 0.0 0.00 0.00 1.68 95 1011.3
20260508005425 12 0 0.0 0.0 0.00 0.00 1.68 94 1011.7
20260508004917 12 40 1.6 3.2 0.00 0.00 1.68 94 1011.8
20260508004418 12 0 0.0 0.0 0.00 0.00 1.68 94 1011.7
20260508003920 12 0 0.0 0.0 0.00 0.00 1.68 94 1011.7
20260508003417 12 341 0.0 0.0 0.00 0.00 1.65 94 1011.5
20260508002917 13 0 0.0 0.0 0.00 0.00 1.65 94 1011.3
20260508002418 13 53 0.0 0.0 0.00 0.00 1.65 94 1011.3
20260508001917 13 54 0.0 0.0 0.00 0.00 1.63 93 1011.5
20260508001417 13 196 0.0 0.0 0.00 0.00 1.60 91 1011.7
20260508000917 13 0 0.0 0.0 0.00 0.00 1.60 92 1011.4
20260508000419 13 69 1.6 3.2 0.00 0.00 1.55 92 1011.2
20260507235917 13 50 1.6 3.2 0.00 0.00 1.55 91 1011.1
20260507235417 13 67 0.0 0.0 0.00 0.00 1.55 91 1011.0
20260507234917 13 251 0.0 1.6 0.00 0.00 1.55 90 1010.7
20260507234417 13 0 0.0 0.0 0.00 0.00 1.55 91 1010.5
20260507233917 13 64 1.6 3.2 0.00 0.00 1.55 91 1010.4
20260507233419 13 43 0.0 0.0 0.00 0.00 1.55 91 1010.4
20260507232917 13 0 0.0 0.0 0.00 0.00 1.55 91 1010.5
20260507232417 13 0 0.0 0.0 0.00 0.00 1.55 91 1010.5
20260507231917 13 67 1.6 3.2 0.00 0.00 1.55 91 1010.4
20260507231417 13 0 0.0 0.0 0.00 0.00 1.55 90 1010.4
20260507230917 13 45 0.0 0.0 0.00 0.00 1.55 90 1010.4
20260507230418 13 0 0.0 0.0 0.00 0.00 1.55 90 1010.5
20260507225917 13 53 1.6 3.2 0.00 0.00 1.55 90 1010.4
20260507225417 13 53 1.6 3.2 0.00 0.00 1.55 91 1010.3
20260507224917 13 37 0.0 1.6 0.00 0.00 1.55 90 1010.3
20260507224417 13 307 0.0 0.0 0.00 0.00 1.55 90 1010.4
20260507223917 13 66 0.0 0.0 0.00 0.00 1.55 91 1010.2
20260507223417 13 309 1.6 3.2 0.00 0.00 1.55 91 1010.1
20260507222917 13 56 0.0 3.2 0.00 0.00 1.55 91 1009.9
20260507222417 13 266 1.6 3.2 0.00 0.00 1.55 91 1010.0
20260507221917 13 56 0.0 1.6 0.00 0.00 1.55 92 1010.0
20260507221419 13 24 3.2 4.8 0.00 0.00 1.55 92 1009.9
20260507220917 13 250 4.8 9.7 0.00 0.00 1.55 91 1009.9
20260507220417 13 0 0.0 0.0 0.00 0.00 1.55 92 1010.0
20260507215917 13 278 1.6 3.2 0.00 0.00 1.55 92 1010.0
20260507215417 13 37 0.0 3.2 0.00 0.00 1.55 91 1010.3
20260507214917 13 64 0.0 0.0 0.00 0.00 1.55 91 1010.2
20260507214417 13 49 1.6 3.2 0.00 0.00 1.55 91 1010.3
20260507213917 13 255 3.2 3.2 0.00 0.00 1.55 91 1010.1
20260507213417 13 215 1.6 3.2 0.00 0.00 1.55 90 1010.1
20260507212917 13 64 1.6 3.2 0.00 0.00 1.55 91 1010.2
20260507212417 13 278 1.6 3.2 0.00 0.00 1.55 90 1010.1
20260507211917 13 66 0.0 0.0 0.00 0.00 1.55 91 1010.1
20260507211417 13 354 3.2 3.2 0.00 0.00 1.55 93 1010.0
20260507210917 13 247 0.0 3.2 0.00 0.00 1.55 92 1010.0
20260507210417 13 52 3.2 6.4 0.00 0.00 1.55 92 1009.9
20260507205917 13 45 4.8 6.4 0.00 0.00 1.55 92 1009.8
20260507205417 13 51 1.6 1.6 0.00 0.00 1.55 92 1009.6
20260507204917 13 220 0.0 1.6 0.00 0.00 1.55 92 1009.3
20260507204417 13 34 3.2 4.8 0.00 0.00 1.55 92 1009.4
20260507203918 14 26 1.6 3.2 0.00 0.00 1.55 92 1009.4
20260507203417 14 46 1.6 4.8 0.00 0.00 1.55 92 1009.5
20260507202921 14 265 1.6 3.2 0.00 0.00 1.55 92 1009.5
20260507202417 14 62 1.6 3.2 0.00 0.00 1.55 92 1009.3
20260507201917 14 36 3.2 6.4 0.00 0.00 1.55 92 1009.3
20260507201418 14 203 3.2 4.8 0.00 0.00 1.55 93 1009.2
20260507200918 14 54 4.8 8.0 0.00 0.00 1.55 93 1009.3
20260507200418 14 212 0.0 3.2 0.00 0.00 1.55 93 1009.2
20260507195918 15 348 0.0 3.2 0.00 0.00 1.52 92 1009.4
20260507195417 15 287 3.2 6.4 0.00 0.00 1.52 93 1009.3
20260507194917 15 63 0.0 1.6 0.00 0.00 1.52 93 1009.4
20260507194417 14 145 1.6 3.2 0.00 0.00 1.52 93 1009.3
20260507193918 14 357 3.2 9.7 0.00 0.00 1.52 93 1009.4
20260507193417 14 358 0.0 3.2 0.00 0.00 1.52 93 1009.3
20260507192917 14 50 1.6 4.8 0.00 0.00 1.52 93 1009.2
20260507192417 14 49 1.6 3.2 0.00 0.00 1.52 94 1009.2
20260507191918 14 29 3.2 4.8 0.00 0.00 1.55 94 1009.1
20260507191418 14 56 1.6 4.8 0.00 0.00 1.55 94 1009.3
20260507190917 15 44 4.8 8.0 0.00 0.00 1.55 94 1009.4
20260507190418 15 53 3.2 4.8 0.00 0.00 1.55 94 1009.6
20260507185917 15 277 3.2 3.2 0.00 0.00 1.55 94 1009.5
20260507184939 15 208 1.6 3.2 0.00 0.00 1.52 94 1009.1
20260507184419 15 58 1.6 3.2 0.00 0.00 1.52 94 1009.0
20260507183917 15 4 3.2 4.8 0.00 0.00 1.52 94 1008.2
20260507183418 15 55 0.0 1.6 0.00 0.00 1.52 94 1008.9
20260507182917 15 97 1.6 4.8 0.00 0.00 1.50 94 1009.2
20260507182417 15 85 3.2 6.4 0.00 0.00 1.50 93 1009.4
20260507181918 16 282 1.6 3.2 0.00 0.00 1.52 93 1009.7
20260507181417 16 132 1.6 3.2 0.00 0.00 1.52 93 1009.0
20260507180917 16 199 0.0 0.0 0.00 0.00 1.52 93 1008.5
20260507180418 16 33 3.2 3.2 0.00 0.00 1.50 93 1008.4
20260507175917 16 45 3.2 4.8 0.00 0.00 1.47 92 1008.8
20260507175417 17 274 1.6 3.2 0.00 0.00 1.47 92 1009.1
20260507174918 18 73 3.2 9.7 0.00 0.00 1.45 91 1009.0
20260507174417 20 234 3.2 8.0 0.00 0.00 1.45 90 1009.0
20260507173919 21 91 1.6 3.2 0.00 0.00 1.45 93 1008.9
20260507173417 21 48 1.6 3.2 0.00 0.00 1.45 93 1009.1
20260507172918 21 90 1.6 3.2 0.00 0.00 1.45 93 1008.9
20260507172418 21 193 1.6 1.6 0.00 0.00 1.45 93 1008.8
20260507171918 21 145 1.6 1.6 0.00 0.00 1.50 92 1008.4
20260507171417 21 0 0.0 0.0 0.00 0.00 1.50 92 1008.3
20260507170917 21 0 0.0 0.0 0.00 0.00 1.50 92 1008.2
20260507170417 20 0 0.0 0.0 0.00 0.00 1.47 92 1008.0
20260507165918 20 0 0.0 0.0 0.00 0.00 1.47 92 1007.9
20260507165417 20 0 0.0 0.0 0.00 0.00 1.47 94 1008.2
20260507164917 20 72 0.0 1.6 0.00 0.00 1.47 94 1008.2
20260507164418 20 207 0.0 1.6 0.00 0.00 1.47 96 1008.2
20260507163919 20 176 0.0 0.0 0.00 0.00 1.47 96 1008.1
20260507163418 20 0 0.0 0.0 0.00 0.00 1.45 95 1008.4
20260507162923 20 66 1.6 3.2 0.00 0.00 1.45 95 1008.7
20260507162419 20 55 3.2 8.0 0.00 0.00 1.45 95 1009.1
20260507161917 20 178 0.0 0.0 0.00 0.00 1.45 95 1009.4
20260507161418 20 149 0.0 1.6 0.00 0.00 1.42 95 1009.5
20260507160918 20 0 0.0 0.0 0.00 0.00 1.42 95 1009.6
20260507160417 20 0 0.0 0.0 0.00 0.00 1.40 95 1009.8
20260507155917 20 45 1.6 3.2 0.00 0.00 1.37 95 1009.8
20260507155417 20 113 0.0 0.0 0.00 0.00 1.35 95 1009.9
20260507154918 20 209 1.6 3.2 0.00 0.00 1.35 95 1009.9
20260507154418 20 214 0.0 1.6 0.00 0.00 1.35 95 1009.7
20260507153917 20 0 0.0 0.0 0.00 0.00 1.35 95 1009.6
20260507153418 20 228 1.6 3.2 0.00 0.00 1.35 96 1009.6
20260507152918 20 0 0.0 0.0 0.00 0.00 1.35 97 1009.1
20260507152417 20 73 0.0 1.6 0.00 0.00 1.35 97 1008.9
20260507151917 20 112 0.0 0.0 0.00 0.00 1.35 97 1009.1
20260507151417 20 0 0.0 0.0 0.00 0.00 1.35 97 1009.2
20260507150917 20 97 0.0 0.0 0.00 0.00 1.35 97 1009.3
20260507150417 20 0 0.0 0.0 0.00 0.00 1.35 97 1009.5
20260507145917 20 0 0.0 0.0 0.00 0.00 1.32 97 1009.4
20260507145417 20 0 0.0 0.0 0.00 0.00 1.32 97 1009.5
20260507144919 19 75 1.6 3.2 0.00 0.00 1.30 97 1009.6
20260507144417 19 62 0.0 1.6 0.00 0.00 1.30 96 1009.6
20260507143917 19 243 6.4 8.0 0.00 0.00 1.27 96 1009.8
20260507143417 19 0 0.0 0.0 0.00 0.00 1.27 97 1009.8
20260507142917 19 0 0.0 0.0 0.00 0.00 1.24 97 1009.8
20260507142417 19 0 0.0 0.0 0.00 0.00 1.22 97 1009.9
20260507141917 19 240 1.6 3.2 0.00 0.00 1.19 97 1009.9
20260507141418 19 69 0.0 0.0 0.00 0.00 1.19 97 1009.6
20260507140917 19 0 0.0 0.0 0.00 0.00 1.19 97 1009.7
20260507140417 19 0 0.0 0.0 0.00 0.00 1.14 97 1009.7
20260507135918 19 0 0.0 0.0 0.00 0.00 1.14 97 1009.9
20260507135417 19 0 0.0 0.0 0.00 0.00 1.14 97 1010.0
20260507134918 19 170 0.0 0.0 0.00 0.00 1.14 97 1010.1
20260507134417 19 61 0.0 1.6 0.00 0.00 1.12 97 1010.1
20260507133919 19 91 0.0 0.0 0.00 0.00 1.09 97 1010.2
20260507133418 19 0 0.0 0.0 0.00 0.00 1.07 97 1010.2
20260507132918 19 0 0.0 0.0 0.00 0.00 1.02 97 1010.3
20260507132418 19 56 0.0 1.6 0.00 0.00 1.02 96 1010.1
20260507131918 19 88 0.0 0.0 0.00 0.00 0.99 97 1010.1
20260507131417 19 0 0.0 0.0 0.00 0.00 0.99 97 1010.2
20260507130918 19 101 0.0 0.0 0.00 0.00 0.99 97 1010.1
20260507130418 19 348 0.0 0.0 0.00 0.00 0.99 97 1010.1
20260507125917 19 0 0.0 0.0 0.00 0.00 0.99 97 1010.1
20260507125418 19 54 0.0 1.6 0.00 0.00 0.97 97 1010.1
20260507124919 19 0 0.0 0.0 0.00 0.00 0.91 97 1010.1
20260507124417 18 256 0.0 0.0 0.00 0.00 0.89 97 1010.2
20260507123917 18 0 0.0 0.0 0.00 0.00 0.89 97 1010.2
20260507123418 18 0 0.0 0.0 0.00 0.00 0.86 97 1010.1
20260507122917 18 60 0.0 0.0 0.00 0.00 0.86 97 1010.1
20260507122417 18 56 0.0 1.6 0.00 0.00 0.86 97 1010.1
20260507121917 18 0 0.0 0.0 0.00 0.00 0.86 97 1010.1
20260507121418 18 0 0.0 0.0 0.00 0.00 0.84 97 1010.0
20260507120918 18 0 0.0 0.0 0.00 0.00 0.84 97 1010.0
20260507120418 18 78 1.6 1.6 0.00 0.00 0.81 97 1010.1
20260507115917 18 0 0.0 0.0 0.00 0.00 0.81 97 1010.2
20260507115417 18 0 0.0 0.0 0.00 0.00 0.81 97 1010.3
20260507114918 18 0 0.0 0.0 0.00 0.00 0.81 97 1010.4
20260507114418 18 55 0.0 0.0 0.00 0.00 0.81 96 1010.2
20260507113917 18 0 0.0 0.0 0.00 0.00 0.81 97 1010.4
20260507113418 18 0 0.0 0.0 0.00 0.00 0.81 96 1010.5
20260507112918 18 70 0.0 1.6 0.00 0.00 0.81 96 1010.5
20260507112417 18 0 0.0 0.0 0.00 0.00 0.81 97 1010.7
20260507111917 18 252 0.0 0.0 0.00 0.00 0.81 97 1010.6
20260507111417 18 0 0.0 0.0 0.00 0.00 0.81 97 1010.6
20260507110918 18 0 0.0 0.0 0.00 0.00 0.81 97 1010.6
20260507110418 18 0 0.0 0.0 0.00 0.00 0.81 97 1010.7
20260507105917 18 0 0.0 0.0 0.00 0.00 0.81 97 1010.7
20260507105417 18 0 0.0 0.0 0.00 0.00 0.81 97 1010.5
20260507104917 18 0 0.0 0.0 0.00 0.00 0.81 97 1010.4
20260507104417 18 0 0.0 0.0 0.00 0.00 0.81 97 1010.3
20260507103919 18 0 0.0 0.0 0.00 0.00 0.81 96 1010.2
20260507103417 18 47 1.6 1.6 0.00 0.00 0.79 96 1010.2
20260507102918 18 0 0.0 0.0 0.00 0.00 0.79 96 1010.2
20260507102417 18 0 0.0 0.0 0.00 0.00 0.79 96 1010.4
20260507101917 18 0 0.0 0.0 0.00 0.00 0.81 96 1010.2
20260507101417 18 56 0.0 1.6 0.00 0.00 0.81 96 1010.2
20260507100917 18 87 0.0 0.0 0.00 0.00 0.81 96 1010.1
20260507100417 18 48 0.0 1.6 0.00 0.00 0.81 96 1010.3
20260507095918 18 0 0.0 0.0 0.00 0.00 0.81 96 1010.3
20260507095417 18 0 0.0 0.0 0.00 0.00 0.79 96 1010.2
20260507094917 18 54 0.0 0.0 0.00 0.00 0.76 96 1010.1
20260507094417 18 0 0.0 0.0 0.00 0.00 0.76 96 1010.2
20260507093917 18 0 0.0 0.0 0.00 0.00 0.76 96 1010.2
20260507093417 18 53 0.0 0.0 0.00 0.00 0.74 96 1010.2
20260507092917 18 0 0.0 0.0 0.00 0.00 0.74 96 1010.2
20260507092417 18 0 0.0 0.0 0.00 0.00 0.74 96 1010.3
20260507091918 18 0 0.0 0.0 0.00 0.00 0.76 96 1010.2
20260507091418 18 0 0.0 0.0 0.00 0.00 0.76 96 1010.2
20260507090918 18 0 0.0 0.0 0.00 0.00 0.76 96 1010.2
20260507090417 17 0 0.0 0.0 0.00 0.00 0.71 96 1010.3
20260507085917 17 0 0.0 0.0 0.00 0.00 0.71 96 1010.3
20260507085418 17 0 0.0 0.0 0.00 0.00 0.71 96 1010.3
20260507084917 17 0 0.0 0.0 0.00 0.00 0.69 96 1010.1
20260507084417 17 0 0.0 0.0 0.00 0.00 0.69 96 1010.4
20260507083917 18 0 0.0 0.0 0.00 0.00 0.66 96 1010.5
20260507083419 18 0 0.0 0.0 0.00 0.00 0.66 96 1010.5
20260507082917 18 0 0.0 0.0 0.00 0.00 0.66 96 1010.6
20260507082417 18 42 0.0 0.0 0.00 0.00 0.66 96 1010.7
20260507081918 18 0 0.0 0.0 0.03 0.00 0.66 96 1011.1
20260507081417 18 0 0.0 0.0 0.00 0.00 0.61 96 1011.3
20260507080918 18 0 0.0 0.0 0.00 0.00 0.58 96 1011.3
20260507080417 18 0 0.0 0.0 0.00 0.00 0.56 96 1011.0
20260507075917 18 0 0.0 0.0 0.00 0.00 0.56 96 1011.3
20260507075417 18 0 0.0 0.0 0.00 0.00 0.53 96 1010.6
20260507074917 18 0 0.0 0.0 0.00 0.00 0.48 96 1010.8
20260507074417 18 0 0.0 0.0 0.00 0.00 0.46 96 1010.7
20260507073917 18 42 0.0 1.6 0.00 0.00 0.46 96 1010.1
20260507073417 18 0 0.0 0.0 0.00 0.00 0.46 96 1011.1
20260507072917 18 0 0.0 0.0 0.00 0.00 0.46 96 1011.5
20260507072418 18 0 0.0 0.0 0.00 0.00 0.46 96 1011.3
20260507071917 18 0 0.0 0.0 0.00 0.00 0.46 96 1011.5
20260507071417 18 0 0.0 0.0 0.00 0.00 0.43 96 1011.6
20260507070917 18 242 1.6 1.6 0.00 0.00 0.43 96 1011.3
20260507070417 18 0 0.0 0.0 0.00 0.00 0.43 96 1011.2
20260507065917 18 0 0.0 0.0 0.03 0.00 0.41 96 1011.2
20260507065417 18 0 0.0 0.0 0.00 0.00 0.36 96 1011.5